www.pogodaiklimat.ru

Погода и климат >> Архив погоды >> Иран >> Остров Киш


ПОГОДА на Острове Киш

  • Прогноз погоды на Острове Киш
  • Монитор погоды на Острове Киш

АРХИВ ПОГОДЫ на Острове Киш

Время (UTC), дата Ветер
(напр.,м/с)
 
Видим.   Явления Облачность Т
(С)
Тd
(С)
f
(%)
Тe
(С)
Тes
(С)
Комфортность P
(гПа)
Po
(гПа)
Тmin
(С)
Tmax
(С)
R
(мм)
R24
(мм)
S
(см)
03 13.06 ЮВ 5 5000 м мгла ясно +32.4 +25.8 68 +48 +49 опасность
перегрева
998.2 995.0 +31.6 666
06 13.06 ЮВ 4 4000 м мгла ясно +36.6 +21.9 43 +45 +55 опасность
перегрева
999.8 996.5
09 13.06 Ю 3 4000 м мгла ясно +37.0 +23.4 46 +47 +66 опасность
перегрева
999.5 996.2
12 13.06 Ю 5 5000 м мгла ясно +37.0 +23.4 46 +47 +53 опасность
перегрева
997.7 994.5
15 13.06 СЗ 3 6000 м мгла ясно +35.2 +20.9 43 +42 +42 опасность
перегрева
997.6 994.4 +39.4
18 13.06 СЗ 3 5000 м мгла ясно +32.6 +24.1 61 +45 +45 опасность
перегрева
998.1 994.9
21 13.06 З 3 4000 м мгла ясно +30.6 +26.3 78 +47 +47 опасность
перегрева
997.0 993.7
00 14.06 СЗ 4 5000 м дымка ясно +29.8 +27.6 88 +48 +48 опасность
перегрева
996.5 993.3
03 14.06 З 2 3000 м дымка ясно +29.8 +28.4 92 +50 +52 опасность
перегрева
997.5 994.2 +28.4
06 14.06 ЮЗ 4 4000 м дымка 3/0
[Ci fib]
+34.0 +30.0 80 +61 +71 опасность
перегрева
999.3 996.0
09 14.06 ЮВ 5 5000 м мгла ясно +39.2 +28.4 55 +60 +72 опасность
перегрева
998.8 995.5
12 14.06 ЮЗ 3 7000 м мгла ясно +37.2 +26.9 56 +55 +63 опасность
перегрева
997.4 994.1
15 14.06 З 2 8000 м мгла 1/0
[Ci fib]
+34.2 +25.3 60 +48 +49 опасность
перегрева
997.4 994.1 +39.6
18 14.06 нст 1 6000 м дымка ясно +30.8 +28.6 88 +52 +52 опасность
перегрева
998.1 994.8
21 14.06 нст 1 3000 м дымка ясно +30.0 +28.6 92 +51 +51 опасность
перегрева
997.6 994.3
00 15.06 штиль 0 <100 м туман ?/? +28.2 +28.2 100 +47 +47 опасность
перегрева
996.9 993.6
03 15.06 нст 1 <100 м туман ясно +28.8 +28.8 100 +50 +52 опасность
перегрева
997.9 994.6 +27.6
06 15.06 В 2 8000 м мгла {туман} ясно +36.2 +22.8 46 +46 +61 опасность
перегрева
999.3 996.0
09 15.06 ЮВ 3 6000 м мгла ясно +36.0 +26.4 58 +53 +71 опасность
перегрева
999.3 996.0 666
12 15.06 Ю 3 8000 м мгла ясно +36.0 +25.8 56 +51 +59 опасность
перегрева
997.9 994.6
15 15.06 З 4 8000 м мгла ясно +33.6 +26.8 68 +51 +51 опасность
перегрева
998.2 994.9 +37.2 666
18 15.06 СЗ 2 6000 м дымка ясно +30.4 +27.1 83 +48 +48 опасность
перегрева
998.5 995.3
21 15.06 З 4 4000 м дымка ясно +30.4 +29.3 94 +54 +54 опасность
перегрева
997.7 994.4
00 16.06 ЮЗ 2 3000 м дымка ясно +28.2 +26.8 92 +44 +44 опасность
перегрева
997.1 993.8
03 16.06 СЗ 2 3000 м дымка ясно +30.0 +29.5 97 +54 +56 опасность
перегрева
998.9 995.6 +28.2 666
06 16.06 ЮВ 3 6000 м мгла ясно +36.6 +28.9 65 +60 +73 опасность
перегрева
999.8 996.5
09 16.06 Ю 2 6000 м мгла ясно +37.8 +28.9 61 +61 +83 опасность
перегрева
999.7 996.4 666
12 16.06 З 5 8000 м мгла 8/0
[Cs]
+38.2 +26.7 52 +55 +59 опасность
перегрева
998.2 994.9
15 16.06 З 4 10 км 10/0
[Cs]
+34.4 +24.0 55 +46 +46 опасность
перегрева
998.0 994.7 +38.8
18 16.06 З 4 7000 м дымка 8/0
[Cs]
+31.4 +29.0 87 +54 +54 опасность
перегрева
998.3 995.0
21 16.06 З 3 6000 м дымка 9/0
[Cs]
+30.6 +28.4 88 +52 +52 опасность
перегрева
997.4 994.1
00 17.06 З 3 2500 м дымка 10/0
[Cs]
+29.8 +28.7 94 +51 +51 опасность
перегрева
996.9 993.6
03 17.06 штиль 0 2500 м дымка {туман} 10/5 750 м
[Frnb Cs]
+30.2 +29.4 95 +54 +55 опасность
перегрева
998.6 995.3 +29.2
06 17.06 В 4 6000 м мгла {туман} 9/0
[Cs]
+34.6 +26.1 61 +50 +59 опасность
перегрева
999.8 996.5
09 17.06 ЮВ 5 4000 м мгла 9/0
[Cs]
+37.0 +24.8 50 +50 +59 опасность
перегрева
999.7 996.4 666
12 17.06 ЮЗ 2 8000 м мгла 10/0
[Cs]
+35.8 +27.1 61 +54 +62 опасность
перегрева
998.0 994.7
15 17.06 З 3 5000 м мгла 4/0
[Ci fib]
+34.4 +27.0 65 +52 +52 опасность
перегрева
997.8 994.6 +37.4 666
18 17.06 З 3 2000 м дымка ясно +30.8 +28.8 89 +53 +53 опасность
перегрева
998.3 995.0
21 17.06 З 3 1200 м дымка ясно +30.2 +30.1 99 +56 +56 опасность
перегрева
997.1 993.8
00 18.06 В 2 1000 м дымка ясно +29.4 +29.4 100 +53 +53 опасность
перегрева
997.0 993.7
03 18.06 В 3 1600 м дымка ясно +29.4 +29.4 100 +53 +54 опасность
перегрева
998.0 994.7 +28.8
06 18.06 ЮВ 4 4000 м мгла ясно +34.8 +24.1 54 +47 +57 опасность
перегрева
998.7 995.4
09 18.06 Ю 5 4000 м мгла ясно +36.4 +24.0 49 +48 +59 опасность
перегрева
998.1 994.8 666
12 18.06 ЮЗ 4 5000 м мгла ясно +36.2 +27.1 60 +55 +61 опасность
перегрева
996.9 993.6
15 18.06 ЮЗ 4 3000 м мгла ясно +34.4 +29.1 74 +58 +58 опасность
перегрева
995.6 992.3 +37.8
18 18.06 СЗ 9 7000 м мгла ясно +34.0 +24.8 59 +47 +47 опасность
перегрева
995.7 992.4
21 18.06 СЗ 8 6000 м мгла ясно +32.6 +25.7 67 +48 +48 опасность
перегрева
994.1 990.9
00 19.06 СЗ 5 6000 м мгла ясно +31.6 +25.5 70 +46 +46 опасность
перегрева
993.5 990.2
03 19.06 ЮВ 4 1500 м дымка 1/1 900 м
[Cu hum]
+30.4 +29.3 94 +54 +55 опасность
перегрева
994.7 991.4 +30.0
06 19.06 В 3 4000 м мгла ясно +35.6 +25.4 56 +50 +63 опасность
перегрева
995.7 992.5
12 19.06 ЮЗ 5 5000 м мгла ясно +35.2 +27.9 66 +56 +61 опасность
перегрева
994.9 991.7
15 19.06 СЗ 4 6000 м мгла ясно +33.6 +25.3 62 +48 +48 опасность
перегрева
994.4 991.1 +39.0
18 19.06 СЗ 5 6000 м мгла ясно +31.8 +25.7 70 +47 +47 опасность
перегрева
995.2 991.9
21 19.06 СЗ 2 5000 м мгла ясно +30.2 +25.9 78 +45 +45 опасность
перегрева
994.9 991.6
00 20.06 В 2 4000 м дымка ясно +30.4 +27.0 82 +48 +48 опасность
перегрева
995.1 991.8

 

Местоположение метеостанции Остров Киш (Иран): широта 26.50 долгота 53.98 высота над уровнем моря 30 м.

В архиве по умолчанию представлена погода на Острове Киш за последнюю неделю. Архивные данные за месяц целиком и за предыдущие месяцы, начиная с января 2011 года, Вы можете получить, выбрав интересующий диапазон дат из раскрывающегося списка и нажав кнопку "Ввод!".


*Определитесь, кто Вы:
робот инопланетянин человек

Внимание! Время в таблицах - всемирное. Для получения местного времени необходимо прибавить поправку, которая равна 3.5 ч.

Смотрите также архив погоды в соседних городах и на ближайших метеорологических станциях:

Погода в Бендер-Ленге (Иран) (85 км)
Погода на Острове Сирри (Иран) (87 км)
Погода на Острове Абу-Муса (Иран) (113 км)
Погода в Дубае (ОАЭ) (194 км)
Погода в Шардже (ОАЭ) (202 км)
Погода в Аль-Мактум аэропорту (ОАЭ) (214 км)
Погода в Рай-эль-Хайма аэропорту (ОАЭ) (218 км)
Погода в Эль-Хасаб аэропорту (Оман) (227 км)
Погода в Эль-Хасабе (Оман) (228 км)
Погода в Абу-Даби Батин аэропорту (ОАЭ) (235 км)

Пояснения к столбцам:

Ветер - указаны скорость ветра в м/с - средняя за 10 мин, порывы в срок и между сроками (в фигурных скобках) и направление, откуда дует ветер: С - северный, СВ - северо-восточный, В - восточный, ЮВ - юго-восточный, Ю - южный, ЮЗ - юго-западный, З - западный, СЗ - северо-западный.
Видимость - горизонтальная дальность видимости в метрах или километрах. При видимости от 1 до 10 км при отсутствии осадков обычно наблюдается дымка, при ухудшении видимости до 1 км и менее - туман. В сухую погоду видимость может ухудшаться дымом, пылью или мглою.
Явления - указаны атмосферные явления, наблюдавшиеся в срок или в последний час перед сроком; фигурными скобками обозначены явления, наблюдавшиеся между сроками (за 1-3 часа до срока); квадратными скобками обозначены град или гололедные отложения с указанием их диаметра в мм.
Облачность - указаны через наклонную черту общая и нижняя облачность в баллах и высота нижней границы облаков в метрах; квадратными скобками обозначены формы облаков: Ci - перистые, Cs - перисто-слоистые, Cc - перисто-кучевые, Ac - высококучевые, As - высокослоистые, Sc - слоисто-кучевые, Ns - слоисто-дождевые, Cu - кучевые, Cb - кучево-дождевые. Подробнее классификацию облаков см. в Атласе облаков (PDF).
T - Температура воздуха - температура, измеренная на высоте 2 м над землей.
Td - Температура точки росы - температура, при понижении до которой содержащийся в воздухе водяной пар достигнет насыщения.
f - Относительная влажность воздуха - влажноcть воздуха, измеренная на высоте 2 м над землей.
Te - Эффективная температура - температура, которую ощущает одетый по сезону человек в тени. Характеристика душности погоды. При расчете учитывается влияние влажности воздуха и скорости ветра на теплоощущения человека.
Tes - Эффективная температура на солнце - температура, которую ощущает человек, с поправкой на солнечный нагрев. Характеристика знойности погоды. Зависит от высоты солнца над горизонтом, облачности и скорости ветра. Ночью, в пасмурную погоду, а также при ветре 12 м/с и более поправка равна нулю.
P - Атмосферное давление - приведенное к уровню моря атмосферное давление.
Po - Атмосферное давление - измеренное на уровне метеостанции атмосферное давление.
Tmin - Минимальная температура - минимум температуры воздуха на высоте 2 м над землей.
Tmax - Максимальная температура - максимум температуры воздуха на высоте 2 м над землей.
R - Количество осадков - Количество выпавших осадков за период времени, мм. При наведении курсора мыши на число - период времени, за который выпало указанное количество осадков.
R24 - Количество осадков - Количество выпавших осадков за 24 часа, мм.
S - Снежный покров - Высота снежного покрова, см. При наведении курсора мыши на число - состояние снежного покрова и степень покрытия местности в баллах.